Regional Weather Roundup
Issued by NWS Little Rock, AR

Home | Current Version | Previous Version | Text Only | Print | Product List | Glossary Off
Versions: 1 2 3 4 5 6 7 8 9 10 11 12 13 14 15 16 17 18 19 20 21 22 23 24 25 26 27 28 29 30 31 32 33 34 35 36 37 38 39 40 41 42 43 44 45 46 47 48 49 50

000
ASUS44 KLZK 021105
RWRLZK

WEATHER ROUNDUP FOR ARKANSAS
NATIONAL WEATHER SERVICE LITTLE ROCK AR
600 AM CDT TUE JUN 02 2015

NOTE: "FAIR" INDICATES FEW OR NO CLOUDS BELOW 12,000 FEET WITH NO
SIGNIFICANT WEATHER AND/OR OBSTRUCTIONS TO VISIBILITY.

ARZ001-003-010-029-021200-
NORTHWEST ARKANSAS

CITY           SKY/WX    TMP DP  RH WIND       PRES   REMARKS
FAYETTEVILLE   CLOUDY    57  57 100 CALM      30.08S
FORT SMITH     PTCLDY    65  62  90 E3        30.06S
HARRISON       CLOUDY    59  58  96 SE6       30.11S
BENTONVILLE    PTCLDY    61  55  82 SE7       30.08S
ROGERS         MOCLDY    61  60  97 E7        30.09S
SILOAM SPGS    CLOUDY    61  54  77 E3        30.09R
HIGHFILL       PTCLDY    60  58  92 E5        30.07S
SPRINGDALE     PTCLDY    61  59  94 E5        30.10
$$

ARZ004-005-016-021200-
NORTH CENTRAL ARKANSAS

CITY           SKY/WX    TMP DP  RH WIND       PRES   REMARKS
BATESVILLE     CLOUDY    61  57  88 CALM      30.10S
FLIPPIN        MOCLDY    61  55  82 CALM      30.10S
MTN HOME       CLOUDY    59  57  93 CALM      30.10F
$$

ARZ040-041-021200-
WEST CENTRAL ARKANSAS

CITY           SKY/WX    TMP DP  RH WIND       PRES   REMARKS
MENA           CLOUDY    63  63 100 CALM      30.09S VSB 1/4
MOUNT IDA      CLEAR     61  59  93 CALM      30.06S FOG
$$

ARZ009-017-025-026-028-021200-
NORTHEAST ARKANSAS

CITY           SKY/WX    TMP DP  RH WIND       PRES   REMARKS
CORNING          N/A     61  61 100 NW6       30.11S
JONESBORO      CLEAR     59  58  96 N6        30.09R
NEWPORT        PTCLDY    59  59 100 N6        30.11R
WALNUT RIDGE   CLEAR     61  57  88 N7        30.10S
BLYTHEVILLE    CLOUDY    62  61  96 N8        30.09R
$$

ARZ022-023-033-042-044-021200-
CENTRAL ARKANSAS

CITY           SKY/WX    TMP DP  RH WIND       PRES   REMARKS
LITTLE ROCK    MOCLDY    64  60  87 NE5       30.09R
N LITTLE ROCK    N/A     62  62 100 NE6       30.09R
JACKSONVILLE   PTCLDY    63  62  96 MISG      30.08R
SEARCY         CLOUDY    62  60  93 NE5       30.11R
HOT SPRINGS    MOCLDY    64  61  90 E3        30.08R
RUSSELLVILLE   MOCLDY    65  61  87 E5        30.08S
CLINTON        MOCLDY    63  59  88 CALM      30.11S
$$

ARZ036-021200-
EAST ARKANSAS

CITY           SKY/WX    TMP DP  RH WIND       PRES   REMARKS
WEST MEMPHIS   CLOUDY    62  62 100 N5        30.07R
$$

ARZ050-053-066-070-073-021200-
SOUTHWEST ARKANSAS

CITY           SKY/WX    TMP DP  RH WIND       PRES   REMARKS
ARKADELPHIA    FAIR      65  65 100 NE3       30.08R
CAMDEN         PTCLDY    61  59  94 CALM      30.07R FOG
TEXARKANA      CLEAR     64  63  96 E3        30.06S
EL DORADO      CLEAR     62  60  93 NE3       30.07R
DE QUEEN       FOG       63  62  97 CALM      30.05S VSB 1
$$

ARZ056-057-069-021200-
SOUTHEAST ARKANSAS

CITY           SKY/WX    TMP DP  RH WIND       PRES   REMARKS
PINE BLUFF     PTCLDY    64  61  90 NE5       30.08R
STUTTGART      MOCLDY    63  59  88 MISG      30.07F
MONTICELLO     CLEAR     62  61  96 CALM      30.06S

$$





USA.gov is the U.S. government's official web portal to all federal, state and local government web resources and services.